Regional Weather Roundup
Issued by NWS Upton, NY

Current Version | Previous Version | Graphics & Text | Print | Product List | Glossary Off
Versions: 1 2 3 4 5 6 7 8 9 10 11 12 13 14 15 16 17 18 19 20 21 22 23 24 25 26 27 28 29 30 31 32 33 34 35 36 37 38 39 40 41 42 43 44 45 46 47 48 49 50

000
ASUS41 KOKX 050708
RWROKX

REGIONAL WEATHER ROUNDUP
NATIONAL WEATHER SERVICE NEW YORK NY
300 AM EDT TUE MAY 05 2015

NOTE: "FAIR" INDICATES FEW OR NO CLOUDS BELOW 12,000 FEET WITH NO
SIGNIFICANT WEATHER AND/OR OBSTRUCTIONS TO VISIBILITY.

NYZ071-072-176-178-NJZ106-104-050800-
NEW YORK CITY METRO AREA


CITY           SKY/WX    TMP DP  RH WIND       PRES   REMARKS
CENTRAL PARK   CLEAR     69  45  41 SW9       30.17F
LAGUARDIA APRT PTCLDY    69  45  41 SW9G20    30.14F
KENNEDY INTL   PTCLDY    57  47  69 S3        30.17F
NEWARK/LIBERTY PTCLDY    68  47  46 SW12      30.15F
BRNX BOT. GARD   N/A     68  46  45 SW5       30.16F
TETERBORO      CLEAR     67  46  47 S7        30.14S
$$

NYZ177-179-078>081-050800-
LONG ISLAND NEW YORK

CITY           SKY/WX    TMP DP  RH WIND       PRES   REMARKS
FARMINGDALE    CLEAR     58  48  69 SW9       30.17F
ISLIP          CLEAR     59  47  64 SW12      30.15F
SHIRLEY        CLEAR     61  46  57 SW12G22   30.17F
WESTHAMPTON    CLEAR     57  45  64 SW14G23   30.18F
MONTAUK POINT    N/A     60  45  57 SW13G26   30.18S
$$

NYZ052-065-067-050800-
HUDSON VALLEY

CITY           SKY/WX    TMP DP  RH WIND       PRES   REMARKS
WHITE PLAINS   CLEAR     67  46  47 VRB5      30.14F
NEWBURGH       PTCLDY    68  48  49 SW7       30.15F
MONTGOMERY     PTCLDY    66  48  52 SW6       30.13S
POUGHKEEPSIE   PTCLDY    72  46  39 S5        30.12S
ALBANY         CLOUDY    66  52  60 W10       30.14R
$$

NJZ001-105-106-008-010-013-015-019>022-104-050800-
NEW JERSEY

CITY           SKY/WX    TMP DP  RH WIND       PRES   REMARKS
NEWARK/LIBERTY PTCLDY    68  47  46 SW12      30.15F
TETERBORO      CLEAR     67  46  47 S7        30.14S
CALDWELL       CLEAR     66  47  50 SW3       30.15S
MORRISTOWN     CLEAR     64  45  48 SW3       30.15F
SOMERVILLE     CLEAR     54  47  77 CALM      30.14F
SUSSEX         PTCLDY    60  47  61 S5        30.17R
ANDOVER          N/A     62  51  67 N5        30.17R
TRENTON        CLEAR     63  47  55 SW6       30.16F
MILLVILLE      CLEAR     63  50  62 VRB3      30.20F
ATLANTIC CITY  CLEAR     63  49  60 SW7       30.20F
WRIGHTSTOWN    CLEAR     63  47  57 SW9       30.15F
TOMS RIVER     CLEAR     63  46  55 SW13      30.18F
BELMAR         CLEAR     66  45  45 SW8       30.17F
$$

PAZ047>061-062-071-050800-
EASTERN PENNSYLVANIA

CITY           SKY/WX    TMP DP  RH WIND       PRES   REMARKS
PHILADELPHIA   PTCLDY    64  49  57 S7        30.18F
ALLENTOWN      CLEAR     57  48  72 CALM      30.16S
SCRANTON       CLOUDY    71  47  42 N7        30.17R
$$

CTZ002-004>006-009-010-012-RIZ004-006-007-MAZ004-011-015-050800-
SOUTHERN NEW ENGLAND
 IN CT

CITY           SKY/WX    TMP DP  RH WIND       PRES   REMARKS
BRADLEY INTL   MOCLDY    65  44  46 S7        30.11S
HARTFORD       MOCLDY    66  44  45 S6        30.13S
DANBURY        PTCLDY    66  43  43 W6        30.16R
WTRBRY/OXFORD    N/A     64  43  45 CALM      30.17S
BRIDGEPORT     CLEAR     59  48  67 SW5       30.14F
MERIDEN        MOCLDY    61  45  55 S7        30.14S
NEW HAVEN      MOCLDY    56  47  71 VRB3      30.15S
CHESTER        PTSUNNY   64  46  52 SW7G16    30.16S
GROTON         PTCLDY    59  44  57 SW12      30.15F
WILLIMANTIC    PTCLDY    67  43  41 SW7       30.14S

 IN RI

CITY           SKY/WX    TMP DP  RH WIND       PRES   REMARKS
PROVIDENCE     CLEAR     65  43  44 SW18      30.13S
BLOCK ISLAND   CLEAR     52  43  71 SW16      30.17S
WESTERLY       CLEAR     60  45  57 SW8       30.16F

 IN MA

CITY           SKY/WX    TMP DP  RH WIND       PRES   REMARKS
BOSTON         PTCLDY    68  42  38 SW16      30.08S
WORCESTER      PTCLDY    66  42  41 SW16      30.11S
WESTFIELD      MOCLDY    65  44  46 S9        30.11S
PROVINCETOWN   PTCLDY    52  46  82 S15G21    30.11S
NANTUCKET      CLEAR     53  48  83 SW15      30.18S
$$

ANZ330-335-338-340-345-350-353-355-050800-
COASTAL MARINE OBSERVATIONS


STATION/POSITION TIME  SKY/WX   TEMP    WIND        PRES    VSBY  WAVE
                                AIR SEA DIR/SP/G                  HT/PER
                 (UTC)          (F)     (DEG/KT/KT) (MB)    (MI)  (FT/S)
NY HARB ENTRANCE 0650            54 50  200/ 16/ 17 1021.0          4/ 5
4S FIRE IS       0603               49                N/A           5/ 5
20S FIRE ISLAND  0650            53 48  210/ 16/ 17 1022.0          4/ 5
GREAT SOUTH BAY  0600            58 59  230/ 14/ 19   N/A
23SW MTP         0650            52 46  230/ 16/ 19 1021.9          4/ 5
HUDSON CANYON    NOT AVBL
KINGS POINT      0600               48                N/A
EASTERN LI SOUND 0600            55     260/ 14/ 21   N/A
ROBBINS REEF     0636            68     250/  9/ 12 1019.9
$$


>>>>>>>>>>>>>>>>>>>>>>>>>>>> KEY <<<<<<<<<<<<<<<<<<<<<<<<<<<
>                                                          <
>     SKY/WX - SKY CONDITION/PRESENT WEATHER               <
>     TMP    - TEMPERATURE IN FAHRENHEIT                   <
>     DP     - DEWPOINT IN FAHRENHEIT                      <
>     RH     - RELATIVE HUMIDITY IN PERCENT                <
>     WIND   - DIRECTION AND SPEED IN MPH                  <
>     PRES   - MEAN SEA LEVEL PRESSURE IN INCHES OF HG     <
>     WCI    - WIND CHILL INDEX                            <
>     VSB    - VISIBILITY IN MILES                         <
>     HX     - HEAT INDEX                                  <
>     TC     - TEMPERATURE IN CELSIUS                      <
>     VRB    - VARIABLE WIND DIRECTION                     <
>                                                          <
>>>>>>>>>>>>>>>>>>>>>>>>>>>> KEY <<<<<<<<<<<<<<<<<<<<<<<<<<<





USA.gov is the U.S. government's official web portal to all federal, state and local government web resources and services.